User: anonymous   Login
Location: Chandrammap?lem
(16.9200°N, 81.0051°E)
Time: 11:19:14
(UTC+00:00)
Language:

Cosmos 2369 Rocket - Orbit

View from above orbital plane
View from above orbital plane
View from above satellite
View from above satellite

Ground track
Ground track

The orbit data is extracted from the following two-line orbital elements,

1 26070U 00006B   24200.64848551 -.00000110  00000-0 -31668-4 0  9992
2 26070  71.0025 277.2773 0016326   5.2664 354.8627 14.15650044263778
Epoch (UTC): 18 July 2024 15:33:49
Eccentricity: 0.0016326
inclination: 71.0025°
perigee height: 828 km
apogee height: 852 km
right ascension of ascending node: 277.2773°
argument of perigee: 5.2664°
revolutions per day: 14.15650044
mean anomaly at epoch: 354.8627°
orbit number at epoch: 26377

The dashed part of the orbit path shows where the satellite is in the earth's shadow,  

DLR